Weather History for Plattsburgh, NY

Change the Weather History Date:

Tuesday, February 19, 2013

  Actual Average Record
Temperature  
Mean Temperature 26 °F 22 °F  
Max Temperature 41 °F 32 °F 56 °F (1981)
Min Temperature 11 °F 13 °F -20 °F (1993)
Degree Days  
Heating Degree Days 39 43  
Month to date heating degree days 765 866  
Since 1 July heating degree days 4835 5242  
Moisture  
Dew Point 20 °F    
Average Humidity 71    
Maximum Humidity 96    
Minimum Humidity 45    
Precipitation  
Precipitation 0.12 in - 1.00 in (1972)
Month to date precipitation 0.45  
Year to date precipitation 1.20  
Sea Level Pressure  
Sea Level Pressure 29.79 in    
Wind  
Wind Speed 8 mph (South)    
Max Wind Speed 23 mph    
Max Gust Speed 32 mph    
Visibility 7 miles    
Events Snow    
T = Trace of Precipitation, MM = Missing Value Source: NWS Daily Summary

Daily Weather History Graph

Daily Weather History Graph

Search for Another Location

Airport:

Trip Planner

Search our weather history database for the weather conditions in past years. The results will help you decide how hot, cold, wet, or windy it might be!

Date:

Astronomy

Feb. 19, 2013 Rise Set
Actual Time 6:47 AM EST 5:28 PM EST
Civil Twilight 6:17 AM EST 5:58 PM EST
Nautical Twilight 5:43 AM EST 6:32 PM EST
Astronomical Twilight 5:10 AM EST 7:05 PM EST
Moon 11:50 AM EST (2/19) 2:24 AM EST (2/19)
Length of Visible Light 11h 40m
Length of Day
10h 40m
Waxing Gibbous, 67% of the Moon is Illuminated
Feb 19
Waxing Gibbous
Feb 25
Full
Mar 4
Last Quarter
Mar 11
New
Mar 19
First Quarter

Hourly Weather History & Observations

Time (EST) Temp. Windchill Dew Point Humidity Pressure Visibility Wind Dir Wind Speed Gust Speed Precip Events Conditions
12:53 AM 10.9 °F - 3.0 °F 70% 30.13 in 10.0 mi Calm Calm - N/A   Clear
1:53 AM 12.0 °F - 3.0 °F 67% 30.14 in 10.0 mi Calm Calm - N/A   Partly Cloudy
2:53 AM 14.0 °F - 5.0 °F 67% 30.13 in 10.0 mi Calm Calm - N/A   Overcast
3:53 AM 16.0 °F - 6.1 °F 65% 30.11 in 10.0 mi Calm Calm - N/A   Overcast
4:53 AM 16.0 °F - 7.0 °F 68% 30.06 in 10.0 mi Calm Calm - N/A   Mostly Cloudy
5:53 AM 14.0 °F 8.2 °F 7.0 °F 74% 30.03 in 10.0 mi West 3.5 mph - N/A   Clear
7:53 AM 18.0 °F - 8.1 °F 65% 29.97 in 10.0 mi Calm Calm - N/A   Overcast
8:53 AM 23.0 °F - 7.0 °F 50% 29.94 in 10.0 mi Calm Calm - N/A   Clear
9:53 AM 28.0 °F 16.1 °F 15.1 °F 58% 29.90 in 10.0 mi SSE 16.1 mph 21.9 mph 0.00 in   Clear
10:53 AM 32.0 °F 23.0 °F 17.1 °F 54% 29.86 in 10.0 mi SSE 11.5 mph - N/A   Scattered Clouds
11:53 AM 34.0 °F 22.1 °F 18.0 °F 52% 29.81 in 10.0 mi SSE 21.9 mph 28.8 mph N/A   Mostly Cloudy
1:53 PM 37.0 °F 27.7 °F 21.0 °F 52% 29.69 in 10.0 mi SSE 16.1 mph - N/A   Clear
2:53 PM 37.0 °F 27.0 °F 23.0 °F 57% 29.66 in 10.0 mi SE 18.4 mph - N/A   Overcast
3:53 PM 41.0 °F 33.9 °F 21.0 °F 45% 29.66 in 10.0 mi South 12.7 mph 20.7 mph N/A   Overcast
4:53 PM 37.9 °F 27.9 °F 28.0 °F 68% 29.65 in 10.0 mi South 19.6 mph 32.2 mph N/A   Overcast
5:53 PM 37.0 °F 27.7 °F 28.9 °F 73% 29.66 in 10.0 mi South 16.1 mph - N/A   Overcast
8:53 PM 33.1 °F - 32.0 °F 96% 29.62 in 4.0 mi Calm Calm - 0.02 in Snow Light Snow
9:20 PM 33.8 °F - 32.0 °F 93% 29.61 in 2.5 mi Calm Calm - 0.01 in Snow Light Snow
9:37 PM 33.8 °F - 32.0 °F 93% 29.61 in 1.5 mi Calm Calm - 0.01 in Snow Light Snow
9:53 PM 33.1 °F - 32.0 °F 96% 29.62 in 1.2 mi Calm Calm - 0.02 in Snow Light Snow
10:23 PM 33.8 °F 29.6 °F 32.0 °F 93% 29.61 in 1.0 mi NW 4.6 mph - 0.03 in Snow Light Snow
10:31 PM 33.8 °F 29.6 °F 30.2 °F 87% 29.61 in 1.0 mi NNW 4.6 mph - 0.04 in Snow Light Snow
10:53 PM 32.0 °F - 30.9 °F 96% 29.63 in 0.8 mi Calm Calm - 0.08 in Snow Light Snow
11:05 PM 33.8 °F 28.6 °F 30.2 °F 87% 29.62 in 3.0 mi Variable 5.8 mph 18.4 mph 0.00 in Snow Light Snow
11:23 PM 33.8 °F 25.3 °F 28.4 °F 81% 29.62 in 7.0 mi West 11.5 mph 21.9 mph 0.00 in Snow Light Snow
11:53 PM 32.0 °F 27.5 °F 26.1 °F 79% 29.63 in 10.0 mi West 4.6 mph - 0.00 in   Overcast